Погода в Раннем

Россия / Оренбургская область     51°29′32″N   52°36′22″E
темп.,
°C
ветер,
м/с
пор.,
м/с
влажн.,
%
обл.,
%
осадки,
мм/ч
давл.,
гПа
погр.,
м
5 августа, чт
чт523:00+29зсз3323100 0.0 100940
02:00+26ссз3843100 0.0 1009179
05:00+25ссз51158100 0.0 1011328
08:00+25с685699 0.1 1009203
11:00+30сз664295 0.1 10111009
14:00+31сз7634100 0.0 10111737
17:00+32сз66280 0.0 10112342
20:00+30сз7728100 0.0 10111852
6 августа, пт
пт623:00+24сз51033100 0.0 1012236
02:00+22с51135100 0.0 1013300
05:00+19ссз484822 0.0 1013160
08:00+21с58490 0.0 1014315
11:00+27ссв66329 0.0 10142004
14:00+30с5623100 0.0 10132516
17:00+31с56210 0.0 10132715
20:00+29с57214 0.0 1013849
7 августа, сб
сб723:00+22ссв49305 0.0 1014124
02:00+20ссв3435100 0.0 101457
05:00+18всв34485 0.0 101548
08:00+21в34415 0.0 1016187
11:00+27св33273 0.0 10161344
14:00+31ссв45175 0.0 10152002
17:00+32св56175 0.0 10142287
20:00+30св57225 0.0 1015606
8 августа, вс
вс823:00+24всв473425 0.0 1016112
02:00+21всв4942100 0.0 1017165
05:00+20всв4748100 0.0 1017120
08:00+22всв474150 0.0 1018270
11:00+28всв5728100 0.0 10181022
14:00+32св67234 0.0 10171816
17:00+33св6621100 0.0 10162155
20:00+31св5826100 0.0 1016664
9 августа, пн
пн923:00+25св4836100 0.0 1017143
02:00+23всв493899 0.0 1017211
05:00+21в363499 0.0 1018124
08:00+23в592925 0.0 1018347
11:00+29в672385 0.0 10181085
14:00+33в551957 0.0 10171826
17:00+34в551774 0.0 10152034
20:00+32всв5720100 0.0 1014367